Regional Weather Roundup
Issued by NWS

Home | Current Version | Previous Version | Text Only | Print | Product List | Glossary On
Versions: 1 2 3 4 5 6 7 8 9 10 11 12 13 14 15 16 17 18 19 20 21 22 23 24 25 26 27 28 29 30 31 32 33 34 35 36 37 38 39 40 41 42 43 44 45 46 47 48 49 50
000
ASUS45 KBOI 112110
RWRID

IDAHO REGIONAL WEATHER ROUNDUP
NATIONAL WEATHER SERVICE BOISE ID
200 PM MST MON DEC 11 2017

NOTE: "FAIR" INDICATES FEW OR NO CLOUDS BELOW 12000 FEET
WITH NO SIGNIFICANT WEATHER AND/OR OBSTRUCTIONS TO VISIBILITY

IDZ012-014-112200-
SOUTHWEST IDAHO


CITY           SKY/WX    TMP DP  RH WIND       PRES   REMARKS
BOISE          CLOUDY    25  20  81 NW7       30.65F WCI  17
CALDWELL       NOT AVBL
MOUNTAIN HOME  CLOUDY    25  25 100 VRB2      30.63F
$$

IDZ016-017-112200-
SOUTHCENTRAL IDAHO


CITY           SKY/WX    TMP DP  RH WIND       PRES   REMARKS
BURLEY         SUNNY     37  24  59 E3        30.53F
JEROME         MOSUNNY   31  25  78 CALM      30.56F
TWIN FALLS     FOG       27  24  89 CALM      30.55F VSB 1/2
$$

IDZ019>023-112200-
SOUTHEAST IDAHO


CITY           SKY/WX    TMP DP  RH WIND       PRES   REMARKS
IDAHO FALLS    CLOUDY    31  23  72 CALM      30.57F
POCATELLO      CLOUDY    31  20  63 E7        30.56F WCI  24
REXBURG        CLOUDY    31  17  56 CALM      30.55F
$$

IDZ006-010-011-018-031-032-112200-
CENTRAL IDAHO MOUNTAINS


CITY           SKY/WX    TMP DP  RH WIND       PRES   REMARKS
MCCALL         SUNNY     26  19  74 CALM      30.50F
HAILEY         SUNNY     43  16  33 SE8       30.53F
STANLEY          N/A     23  13  65 CALM      30.57F
SALMON         CLOUDY    19  14  81 CALM      30.70F
CHALLIS        SUNNY     27  14  58 CALM      30.59F
$$

IDZ002-004-006-007-026-112200-
NORTHERN IDAHO


CITY           SKY/WX    TMP DP  RH WIND       PRES   REMARKS
LEWISTON       CLOUDY    30  25  81 W6        30.62F WCI  24
LOWELL           N/A     37  29  72 N5        30.58F WCI  33
COEUR D`ALENE  MOSUNNY   35  25  66 NE9       30.55F WCI  28
MULLAN PASS    SUNNY     45   3  17 S5        30.46F
$$



USA.gov is the U.S. government's official web portal to all federal, state and local government web resources and services.